Wind_Speed
12 12 13 14 14 15 14 13 14 15 15 17 18 19 20 21 21 21 21 21 21 21 22 22 23 23 23 23 24 23 23 25 25 26 26 27 29 29 30 30 29 29 30 31
12 13 14 14 14 14 13 12 13 14 15 15 17 18 19 19 19 20 20 20 20 20 21 21 21 22 23 23 24 24 24 25 26 27 27 28 28 29 30 30 30 30 31 32
13 13 13 13 13 13 13 12 13 14 13 14 14 15 16 17 18 19 20 20 20 20 20 20 21 22 23 23 24 25 25 25 26 27 28 28 29 29 30 30 31 32 32 32
14 13 13 12 12 12 12 13 12 12 11 13 13 12 15 16 16 17 18 18 18 19 19 20 20 21 22 23 24 25 25 26 26 27 28 28 29 29 30 31 31 32 32 33
13 13 12 12 12 12 13 13 12 12 11 12 12 11 15 15 15 16 16 16 17 18 18 19 19 20 21 22 23 24 25 26 26 27 28 28 29 30 30 30 31 32 32 33
14 13 12 13 13 13 12 11 11 11 9 10 11 10 13 13 13 14 15 16 17 17 17 18 19 20 20 21 22 24 25 26 27 28 28 29 29 30 30 31 31 32 32 33
13 13 12 12 13 12 12 10 8 8 8 10 12 11 12 12 13 14 15 15 15 17 18 19 20 21 22 22 23 24 25 26 27 28 29 29 30 30 30 31 31 32 32 32
13 13 13 12 12 12 11 10 9 9 9 10 12 11 13 13 14 15 15 16 16 17 19 20 21 22 23 24 25 26 26 27 28 28 29 30 30 30 30 30 30 31 31 31
14 13 13 12 12 12 11 11 10 9 9 9 11 12 13 13 14 15 15 16 17 19 20 21 22 23 24 25 26 26 27 28 27 27 27 28 28 29 29 29 29 30 30 30
13 13 13 13 13 13 13 12 11 9 8 9 10 12 12 14 14 15 16 17 18 20 21 22 23 25 26 27 27 27 27 27 27 27 27 27 27 27 28 29 29 29 29 30
13 12 12 13 13 13 13 12 11 10 10 10 10 12 14 14 15 16 17 18 20 21 22 24 25 26 26 27 27 27 27 26 27 27 27 27 27 28 28 28 29 29 29 29
13 13 12 12 13 13 13 12 11 11 11 11 12 14 15 15 16 18 18 20 21 23 24 25 26 27 27 27 27 27 27 27 27 27 27 28 28 28 28 28 29 28 28 29
14 13 12 11 12 13 13 12 12 12 12 12 13 15 17 16 17 19 20 21 23 24 25 26 27 27 27 27 28 27 27 28 28 28 27 28 28 28 28 28 28 28 27 27
14 13 13 12 12 12 12 12 12 12 12 13 14 16 18 18 19 21 22 23 24 25 25 26 27 27 27 27 27 27 27 27 26 26 27 27 28 27 27 28 28 27 26 26
14 14 13 14 14 13 13 13 13 13 13 14 15 17 18 20 21 22 23 24 25 26 26 27 27 27 27 27 27 26 26 26 26 26 26 27 27 27 27 26 26 25 25 24
15 14 13 13 13 13 13 12 13 14 14 16 17 19 19 21 22 22 23 24 26 27 27 27 27 26 26 26 26 26 26 26 25 25 25 26 26 25 24 24 23 23 22 22
14 14 13 12 12 12 12 12 13 13 14 16 17 19 19 20 21 23 24 25 26 26 26 26 25 25 25 25 24 24 24 24 23 23 23 23 22 22 22 21 21 21 20 20
11 12 12 12 12 12 11 11 11 12 14 15 17 18 19 20 22 23 24 25 25 25 25 24 24 23 23 23 22 22 22 22 22 21 21 20 20 19 19 18 18 18 17 17
10 11 11 11 11 11 11 11 12 13 14 16 17 18 20 21 23 23 24 24 24 23 23 22 21 21 21 21 21 20 20 19 19 18 18 18 17 16 15 14 14 14 14 14
9 10 10 9 10 10 12 12 12 13 15 16 17 19 20 22 22 23 23 22 22 21 20 20 19 19 19 19 18 17 16 16 16 15 14 13 12 11 11 11 11 11 11 11
9 9 9 9 9 10 10 10 11 13 15 16 17 19 20 21 22 22 22 21 20 18 18 18 17 17 16 16 14 14 13 13 12 12 11 10 9 8 8 8 8 9 9 8
9 9 9 9 9 10 10 10 11 13 14 15 17 18 20 21 20 20 19 18 17 16 16 15 14 13 13 12 11 11 10 10 9 8 7 7 6 6 6 6 6 6 6 5
8 9 9 9 10 10 10 10 11 12 14 15 16 18 19 19 18 17 16 16 15 14 14 13 12 10 10 10 9 9 8 8 7 6 6 6 5 4 4 3 4 4 3 3
7 7 8 9 9 10 10 10 11 12 13 15 16 17 17 17 16 15 14 14 13 13 12 10 9 7 7 7 7 7 7 6 7 6 5 5 4 4 3 3 2 1 0 1
6 6 7 7 8 9 9 10 10 11 13 14 15 16 15 14 14 13 12 12 12 11 10 9 8 7 7 7 7 7 7 7 7 6 6 6 6 5 5 5 5 5 4 4
6 6 7 7 7 8 8 9 10 12 13 14 15 14 14 13 12 11 11 11 10 10 9 8 8 8 7 7 7 7 8 8 8 8 8 8 8 8 8 9 9 9 8 8
Wind_Direction
216 214 214 214 210 213 214 217 226 233 236 238 241 244 248 251 254 257 261 265 267 268 268 270 272 274 274 273 273 272 271 270 270 270 269 268 267 267 266 266 268 269 267 268
210 213 214 212 210 211 214 218 229 235 239 241 246 249 252 254 256 258 260 262 265 266 266 268 270 272 272 272 271 270 271 271 269 269 270 269 269 269 269 267 267 269 268 269
206 211 211 209 209 210 213 216 229 238 242 246 248 252 254 254 256 260 262 264 265 267 268 271 272 273 274 272 271 271 271 271 270 270 270 270 270 269 269 269 270 270 269 270
205 208 208 209 210 209 217 221 229 238 244 251 251 258 261 259 260 262 264 265 267 269 271 272 274 274 275 274 273 272 272 273 273 273 273 274 273 272 272 272 272 272 270 270
207 207 206 209 212 211 219 225 231 238 240 249 254 253 262 263 265 265 265 268 271 272 272 273 276 277 279 277 275 274 274 276 277 277 276 274 274 273 274 273 272 272 271 269
206 206 207 209 214 216 222 226 232 238 246 254 258 256 265 268 271 270 269 272 273 274 275 276 279 282 283 281 281 280 279 279 280 280 279 276 274 273 274 273 273 272 271 270
206 210 212 214 216 220 222 222 231 242 250 255 259 256 259 267 272 273 273 275 274 276 277 281 283 285 284 284 284 283 284 283 282 282 281 278 275 274 275 275 273 272 270 269
206 214 214 214 215 222 222 216 221 235 246 257 268 261 264 271 275 277 276 277 278 281 283 285 286 287 287 286 286 286 285 285 284 282 281 278 277 276 276 276 274 272 271 269
203 211 215 215 214 215 220 221 227 240 251 258 267 270 273 275 279 280 280 282 283 285 287 287 287 288 288 288 286 286 287 286 284 284 283 281 279 277 276 276 275 273 273 271
203 208 214 217 219 221 222 228 235 238 252 258 273 282 282 283 284 285 285 286 287 289 290 290 291 291 291 291 289 291 288 285 284 284 283 282 280 279 278 277 276 274 274 273
206 212 218 220 222 227 231 235 240 244 248 258 271 278 280 284 286 288 288 288 289 291 291 292 293 293 293 292 290 291 290 288 287 285 284 283 282 281 280 280 278 276 275 274
208 210 217 222 226 228 231 237 244 249 262 264 270 278 281 285 288 289 289 289 291 293 293 295 295 295 295 293 291 290 290 289 288 286 285 284 283 283 282 281 280 278 276 274
210 214 216 223 232 233 236 242 249 254 262 269 274 281 284 286 290 291 291 293 296 296 296 297 297 295 295 294 293 292 291 290 288 286 286 285 284 284 283 281 282 280 277 275
214 214 215 219 228 237 243 248 254 259 264 273 278 280 286 287 290 292 293 294 296 297 297 297 298 297 296 295 293 293 292 291 288 287 286 286 286 285 283 282 281 280 278 276
217 221 221 224 228 234 243 250 258 262 267 274 280 284 288 290 293 294 295 296 296 297 297 298 298 298 297 296 295 294 294 294 292 290 288 288 287 286 284 283 281 279 278 276
223 225 227 231 233 239 247 253 260 267 273 278 283 289 291 293 295 296 297 297 298 299 299 300 301 300 297 296 295 295 295 294 293 292 290 290 289 287 285 283 281 279 278 275
225 227 230 233 236 243 252 257 265 272 277 284 288 293 295 295 297 299 300 300 300 301 301 301 301 299 297 296 295 295 295 295 294 293 293 292 289 288 285 281 279 278 277 275
224 226 231 234 237 245 251 260 271 278 284 288 291 295 299 301 302 303 303 303 302 303 302 301 301 299 298 298 299 298 296 295 295 295 294 291 290 288 284 279 279 278 278 274
221 224 228 234 241 250 257 265 273 282 288 292 295 299 303 304 305 306 306 306 305 304 303 302 302 302 301 301 301 299 298 297 298 296 294 293 291 288 284 281 278 277 276 275
219 222 227 235 242 252 261 269 276 286 293 297 300 303 306 306 308 310 309 308 307 306 305 306 306 304 303 303 303 301 300 299 300 301 301 299 296 292 286 279 276 278 277 273
221 225 230 240 249 257 266 276 283 290 296 301 303 305 307 309 311 312 312 313 312 311 310 309 309 308 308 308 309 308 306 304 304 306 307 305 304 302 296 289 280 279 278 272
222 227 234 244 249 257 271 280 286 293 300 303 306 308 310 312 313 315 317 318 318 318 318 318 316 315 316 318 321 321 317 315 314 316 319 320 318 311 300 295 286 284 279 277
229 232 236 242 251 263 275 285 290 296 302 307 310 312 313 315 317 319 322 324 326 327 328 328 324 322 323 325 327 330 330 333 337 340 338 335 333 330 321 307 294 290 285 280
233 235 240 247 256 265 278 291 299 302 307 311 315 318 320 321 323 325 327 329 331 333 335 339 341 340 340 343 347 353 354 1 4 2 4 7 12 11 13 11 11 25 61 34
225 235 245 254 263 274 285 296 304 310 313 317 319 322 326 327 329 332 335 337 339 345 352 359 5 7 10 14 18 20 19 19 25 34 39 43 46 46 51 63 71 80 85 90
231 242 250 259 272 285 294 299 307 313 317 321 323 326 328 328 331 335 338 341 345 352 2 12 18 23 28 34 36 35 35 40 49 55 58 61 68 69 70 73 78 79 80 81
Height
5818 5822 5825 5827 5830 5832 5835 5837 5838 5839 5841 5843 5844 5846 5847 5848 5849 5850 5850 5851 5851 5851 5851 5851 5851 5850 5849 5849 5848 5848 5847 5846 5846 5845 5844 5844 5843 5842 5842 5841 5841 5841 5841 5840
5817 5820 5822 5824 5826 5829 5832 5834 5835 5837 5838 5840 5841 5842 5843 5844 5845 5846 5846 5846 5846 5846 5846 5845 5845 5844 5844 5843 5842 5842 5841 5840 5839 5839 5838 5837 5836 5835 5834 5834 5834 5834 5833 5833
5815 5818 5819 5822 5824 5827 5830 5832 5833 5834 5836 5837 5838 5839 5840 5841 5841 5841 5841 5841 5841 5841 5841 5840 5839 5839 5838 5837 5836 5835 5835 5834 5833 5832 5831 5830 5829 5829 5828 5828 5827 5826 5825 5825
5812 5814 5817 5820 5822 5825 5827 5829 5830 5832 5834 5835 5837 5838 5837 5837 5837 5837 5837 5836 5836 5836 5835 5835 5834 5833 5832 5831 5830 5829 5828 5827 5826 5825 5824 5823 5822 5821 5821 5820 5819 5818 5817 5816
5810 5813 5816 5818 5821 5823 5825 5826 5828 5830 5831 5833 5833 5835 5835 5833 5833 5833 5833 5832 5832 5831 5830 5829 5829 5828 5826 5825 5824 5822 5821 5821 5819 5818 5817 5816 5815 5814 5813 5811 5810 5809 5809 5808
5809 5811 5814 5816 5818 5820 5822 5825 5826 5827 5830 5831 5831 5832 5832 5830 5829 5829 5828 5828 5827 5826 5825 5824 5824 5822 5821 5819 5818 5816 5815 5814 5813 5811 5810 5808 5807 5806 5805 5803 5802 5801 5800 5800
5807 5810 5812 5814 5816 5818 5821 5824 5826 5828 5829 5830 5828 5828 5829 5827 5826 5825 5824 5824 5823 5822 5821 5819 5818 5817 5815 5813 5812 5810 5808 5807 5806 5804 5802 5801 5799 5798 5797 5795 5794 5793 5792 5792
5806 5809 5810 5812 5815 5817 5818 5822 5826 5827 5828 5827 5824 5825 5825 5823 5822 5821 5820 5819 5819 5817 5816 5814 5813 5811 5809 5807 5806 5804 5802 5800 5798 5796 5794 5793 5791 5790 5789 5787 5786 5785 5784 5783
5805 5808 5809 5810 5812 5815 5816 5819 5821 5823 5823 5824 5823 5822 5821 5819 5818 5817 5816 5815 5814 5813 5811 5809 5807 5805 5803 5801 5799 5797 5795 5792 5790 5788 5787 5785 5783 5782 5781 5779 5778 5777 5776 5775
5802 5805 5807 5808 5810 5812 5815 5816 5817 5820 5821 5822 5821 5819 5818 5816 5814 5813 5812 5810 5809 5807 5805 5803 5801 5799 5797 5794 5791 5789 5787 5785 5783 5781 5779 5777 5776 5774 5773 5772 5770 5769 5768 5768
5800 5803 5805 5806 5808 5810 5812 5813 5814 5816 5817 5818 5819 5819 5814 5812 5811 5809 5807 5805 5804 5802 5800 5797 5795 5793 5790 5787 5784 5782 5779 5777 5775 5773 5772 5770 5768 5767 5765 5764 5762 5761 5761 5760
5797 5801 5803 5804 5806 5807 5809 5810 5812 5813 5813 5813 5814 5816 5809 5808 5806 5804 5802 5800 5798 5796 5793 5791 5788 5786 5783 5780 5777 5775 5772 5770 5768 5766 5764 5762 5760 5759 5757 5756 5754 5753 5752 5752
5795 5798 5801 5803 5806 5806 5806 5807 5808 5809 5809 5809 5810 5811 5805 5803 5801 5799 5797 5795 5792 5790 5787 5784 5781 5779 5776 5773 5770 5767 5765 5762 5760 5758 5756 5754 5752 5751 5749 5748 5746 5745 5744 5744
5792 5795 5799 5802 5803 5803 5803 5804 5805 5805 5806 5806 5805 5804 5801 5798 5796 5794 5792 5789 5786 5784 5781 5778 5774 5771 5768 5765 5762 5760 5757 5755 5752 5750 5748 5746 5744 5743 5741 5740 5739 5738 5737 5736
5790 5792 5794 5796 5797 5798 5800 5801 5801 5801 5802 5801 5800 5798 5796 5793 5791 5788 5786 5783 5780 5777 5774 5771 5767 5764 5761 5758 5755 5752 5750 5747 5745 5743 5741 5738 5737 5735 5734 5732 5731 5730 5729 5729
5787 5789 5791 5793 5794 5795 5796 5797 5797 5797 5797 5796 5795 5793 5790 5788 5785 5783 5780 5777 5773 5770 5767 5763 5760 5757 5754 5751 5748 5745 5742 5740 5737 5735 5733 5731 5729 5728 5726 5725 5724 5723 5723 5722
5784 5786 5788 5790 5791 5793 5794 5794 5794 5793 5793 5792 5790 5788 5785 5782 5780 5777 5774 5770 5767 5763 5760 5757 5753 5750 5747 5744 5741 5738 5736 5733 5731 5729 5727 5725 5723 5721 5720 5719 5718 5717 5717 5716
5781 5783 5785 5787 5790 5791 5793 5790 5790 5790 5788 5787 5785 5782 5780 5777 5774 5771 5767 5764 5760 5756 5753 5750 5747 5744 5741 5738 5735 5733 5730 5728 5725 5723 5721 5719 5717 5716 5714 5713 5712 5712 5712 5712
5779 5781 5783 5785 5786 5787 5788 5787 5786 5786 5784 5782 5780 5778 5775 5772 5768 5765 5761 5757 5753 5750 5747 5744 5741 5738 5735 5732 5730 5727 5725 5722 5720 5718 5716 5714 5712 5711 5709 5708 5708 5708 5707 5707
5777 5779 5781 5782 5784 5785 5785 5784 5783 5783 5780 5778 5775 5773 5770 5767 5763 5760 5755 5751 5747 5744 5741 5738 5736 5733 5730 5727 5725 5722 5720 5718 5716 5714 5712 5710 5708 5707 5706 5705 5705 5704 5704 5704
5775 5777 5779 5780 5781 5781 5781 5780 5780 5780 5778 5774 5771 5768 5765 5762 5759 5755 5750 5746 5743 5739 5736 5734 5731 5728 5725 5723 5721 5718 5716 5714 5712 5710 5709 5707 5705 5704 5703 5703 5702 5702 5701 5701
5774 5775 5777 5778 5779 5780 5777 5777 5777 5775 5772 5770 5767 5764 5761 5757 5753 5749 5745 5742 5739 5736 5732 5730 5727 5724 5722 5720 5718 5716 5714 5712 5710 5708 5706 5705 5704 5703 5702 5701 5700 5699 5699 5699
5772 5774 5774 5776 5777 5775 5774 5774 5773 5771 5769 5766 5763 5760 5756 5753 5749 5746 5742 5739 5736 5733 5730 5727 5724 5722 5720 5718 5716 5714 5712 5710 5708 5707 5705 5704 5703 5701 5700 5699 5699 5698 5698 5698
5770 5771 5772 5772 5773 5772 5772 5771 5769 5768 5766 5763 5760 5757 5753 5749 5746 5743 5740 5737 5734 5731 5728 5725 5722 5720 5718 5717 5715 5713 5711 5709 5708 5706 5705 5703 5702 5701 5700 5699 5698 5698 5697 5697
5769 5769 5770 5770 5771 5770 5769 5768 5767 5765 5763 5760 5757 5753 5750 5747 5744 5741 5738 5735 5732 5729 5726 5724 5722 5720 5718 5716 5715 5713 5711 5710 5708 5706 5705 5704 5703 5701 5700 5699 5699 5698 5698 5698
5767 5768 5769 5769 5769 5768 5767 5766 5764 5763 5760 5757 5754 5751 5748 5745 5742 5739 5737 5734 5731 5729 5726 5724 5722 5720 5718 5717 5715 5714 5712 5711 5709 5708 5707 5705 5704 5703 5702 5701 5701 5700 5700 5699